When you browse on this site, cookies collect data to enhance your experience and personalize the content and advertising you see.
Visit our Privacy Policy to learn more. By continuing to use the site, you agree to this use of cookies and data.
  • In Austria
  • List of Countries
  • For 7 days
  • Water Temperature
  • Weather Map
  • News
  • Weather Widgets
  • user-avatar
    Login

    Hourly Weather Zacualtipan

    Today, 6 December, Friday

    Time Temperature Precipitation Wind Pressure Humidity
    00:00 +12°C° 0 mm 1 mps 617 mmHg 86%
    01:00 +12°C° 0 mm 1 mps 617 mmHg 83%
    02:00 +12°C° 0 mm 1 mps 617 mmHg 79%
    03:00 +11°C° 0 mm 1 mps 617 mmHg 76%
    04:00 +11°C° 0 mm 1 mps 617 mmHg 72%
    05:00 +11°C° 0 mm 1 mps 617 mmHg 68%
    06:00 +13°C° 0 mm 1 mps 618 mmHg 62%
    07:00 +15°C° 0 mm 1 mps 619 mmHg 55%
    08:00 +16°C° 0 mm 0 mps 620 mmHg 48%
    09:00 +20°C° 0 mm 1 mps 621 mmHg 46%
    10:00 +21°C° 0 mm 1 mps 621 mmHg 44%
    11:00 +21°C° 0 mm 2 mps 622 mmHg 42%
    12:00 +21°C° 0 mm 2 mps 621 mmHg 47%
    13:00 +21°C° 0 mm 2 mps 621 mmHg 51%
    14:00 +20°C° 0 mm 3 mps 620 mmHg 55%
    15:00 +18°C° 0 mm 2 mps 620 mmHg 68%
    16:00 +16°C° 0 mm 2 mps 619 mmHg 80%
    17:00 +14°C° 0 mm 1 mps 619 mmHg 92%
    18:00 +14°C° 0 mm 1 mps 619 mmHg 93%
    19:00 +13°C° 0 mm 1 mps 620 mmHg 94%
    20:00 +12°C° 0 mm 0 mps 620 mmHg 95%
    21:00 +11°C° 0 mm 0 mps 620 mmHg 95%
    22:00 +11°C° 0 mm 1 mps 620 mmHg 94%
    23:00 +11°C° 0 mm 1 mps 620 mmHg 94%

    Tomorrow, 7 December, Saturday

    Time Temperature Precipitation Wind Pressure Humidity
    00:00 +10°C° 0 mm 1 mps 619 mmHg 93%
    01:00 +10°C° 0 mm 1 mps 619 mmHg 92%
    02:00 +10°C° 0 mm 1 mps 619 mmHg 92%
    03:00 +10°C° 0 mm 1 mps 619 mmHg 91%
    04:00 +10°C° 0 mm 1 mps 619 mmHg 91%
    05:00 +10°C° 0 mm 1 mps 619 mmHg 90%
    06:00 +11°C° 0 mm 1 mps 620 mmHg 84%
    07:00 +13°C° 0 mm 1 mps 621 mmHg 78%
    08:00 +13°C° 0 mm 0 mps 622 mmHg 72%
    09:00 +16°C° 0 mm 1 mps 622 mmHg 65%
    10:00 +18°C° 0 mm 1 mps 622 mmHg 59%
    11:00 +19°C° 0 mm 2 mps 622 mmHg 52%
    12:00 +18°C° 0 mm 2 mps 621 mmHg 58%
    13:00 +18°C° 0 mm 2 mps 621 mmHg 63%
    14:00 +18°C° 0 mm 2 mps 620 mmHg 69%
    15:00 +16°C° 0.1 mm 2 mps 619 mmHg 77%
    16:00 +15°C° 0.1 mm 2 mps 619 mmHg 85%
    17:00 +14°C° 0.1 mm 1 mps 619 mmHg 94%
    18:00 +14°C° 0.1 mm 1 mps 619 mmHg 94%
    19:00 +13°C° 0.1 mm 1 mps 619 mmHg 95%
    20:00 +12°C° 0.1 mm 0 mps 620 mmHg 95%
    21:00 +12°C° 0 mm 0 mps 620 mmHg 93%
    22:00 +12°C° 0 mm 0 mps 619 mmHg 92%
    23:00 +11°C° 0 mm 0 mps 619 mmHg 90%

    Day after tomorrow, 8 December, Sunday

    Time Temperature Precipitation Wind Pressure Humidity
    00:00 +12°C° 0 mm 1 mps 618 mmHg 90%
    01:00 +11°C° 0 mm 1 mps 618 mmHg 91%
    02:00 +10°C° 0 mm 1 mps 617 mmHg 91%
    03:00 +10°C° 0 mm 1 mps 617 mmHg 90%
    04:00 +10°C° 0 mm 1 mps 617 mmHg 90%
    05:00 +10°C° 0 mm 1 mps 616 mmHg 89%
    06:00 +12°C° 0 mm 1 mps 618 mmHg 83%
    07:00 +12°C° 0 mm 0 mps 619 mmHg 76%
    08:00 +14°C° 0 mm 0 mps 620 mmHg 70%
    09:00 +18°C° 0 mm 1 mps 620 mmHg 63%
    10:00 +20°C° 0 mm 1 mps 620 mmHg 57%
    11:00 +21°C° 0 mm 1 mps 620 mmHg 50%
    12:00 +20°C° 0 mm 2 mps 619 mmHg 52%
    13:00 +20°C° 0 mm 2 mps 619 mmHg 54%
    14:00 +20°C° 0 mm 2 mps 618 mmHg 56%
    15:00 +18°C° 0 mm 2 mps 617 mmHg 68%
    16:00 +16°C° 0 mm 1 mps 616 mmHg 81%
    17:00 +14°C° 0 mm 1 mps 616 mmHg 93%
    18:00 +14°C° 0 mm 1 mps 616 mmHg 92%
    19:00 +13°C° 0 mm 1 mps 616 mmHg 91%
    20:00 +13°C° 0 mm 1 mps 616 mmHg 90%
    21:00 +13°C° 0 mm 1 mps 616 mmHg 87%
    22:00 +13°C° 0 mm 1 mps 616 mmHg 84%
    23:00 +13°C° 0 mm 1 mps 616 mmHg 81%

    9 December, Monday

    Time Temperature Precipitation Wind Pressure Humidity
    00:00 +12°C° 0 mm 1 mps 616 mmHg 77%
    01:00 +12°C° 0 mm 1 mps 615 mmHg 73%
    02:00 +12°C° 0 mm 1 mps 615 mmHg 69%
    03:00 +12°C° 0 mm 1 mps 615 mmHg 66%
    04:00 +12°C° 0 mm 2 mps 615 mmHg 63%
    05:00 +12°C° 0 mm 2 mps 615 mmHg 60%
    06:00 +14°C° 0 mm 2 mps 616 mmHg 55%
    07:00 +16°C° 0 mm 1 mps 617 mmHg 51%
    08:00 +19°C° 0 mm 1 mps 618 mmHg 47%
    09:00 +21°C° 0 mm 1 mps 618 mmHg 42%
    10:00 +23°C° 0 mm 1 mps 619 mmHg 38%
    11:00 +25°C° 0 mm 1 mps 619 mmHg 34%
    12:00 +25°C° 0 mm 1 mps 618 mmHg 36%
    13:00 +25°C° 0 mm 1 mps 618 mmHg 37%
    14:00 +25°C° 0 mm 1 mps 617 mmHg 39%
    15:00 +22°C° 0 mm 1 mps 616 mmHg 52%
    16:00 +19°C° 0 mm 1 mps 615 mmHg 66%
    17:00 +15°C° 0 mm 0 mps 614 mmHg 80%
    18:00 +16°C° 0 mm 1 mps 614 mmHg 76%
    19:00 +16°C° 0 mm 1 mps 615 mmHg 71%
    20:00 +16°C° 0 mm 1 mps 615 mmHg 66%
    21:00 +16°C° 0 mm 1 mps 615 mmHg 62%
    22:00 +15°C° 0 mm 1 mps 615 mmHg 57%
    23:00 +15°C° 0 mm 2 mps 615 mmHg 52%

    10 December, Tuesday

    Time Temperature Precipitation Wind Pressure Humidity
    00:00 +15°C° 0 mm 2 mps 615 mmHg 51%
    01:00 +15°C° 0 mm 2 mps 615 mmHg 50%
    02:00 +15°C° 0 mm 2 mps 615 mmHg 49%
    03:00 +15°C° 0 mm 2 mps 615 mmHg 49%
    04:00 +14°C° 0 mm 2 mps 615 mmHg 49%
    05:00 +14°C° 0 mm 2 mps 615 mmHg 49%
    06:00 +16°C° 0 mm 2 mps 617 mmHg 49%
    07:00 +18°C° 0 mm 1 mps 618 mmHg 50%
    08:00 +20°C° 0 mm 1 mps 619 mmHg 50%
    09:00 +19°C° 0 mm 2 mps 619 mmHg 56%
    10:00 +19°C° 0 mm 2 mps 619 mmHg 61%
    11:00 +19°C° 0 mm 3 mps 620 mmHg 66%
    12:00 +18°C° 0.2 mm 3 mps 619 mmHg 74%
    13:00 +16°C° 0.2 mm 3 mps 618 mmHg 81%
    14:00 +15°C° 0.2 mm 2 mps 618 mmHg 89%
    15:00 +14°C° 0.4 mm 2 mps 618 mmHg 91%
    16:00 +13°C° 0.4 mm 2 mps 618 mmHg 93%
    17:00 +12°C° 0.4 mm 2 mps 618 mmHg 95%
    18:00 +10°C° 0.5 mm 2 mps 619 mmHg 95%
    19:00 +10°C° 0.5 mm 2 mps 619 mmHg 95%
    20:00 +9°C° 0.5 mm 2 mps 620 mmHg 95%
    21:00 +10°C° 0.3 mm 1 mps 620 mmHg 95%
    22:00 +10°C° 0.3 mm 1 mps 620 mmHg 96%
    23:00 +10°C° 0.3 mm 1 mps 620 mmHg 96%

    11 December, Wednesday

    Time Temperature Precipitation Wind Pressure Humidity
    00:00 +9°C° 0.1 mm 1 mps 620 mmHg 96%
    01:00 +9°C° 0.1 mm 1 mps 619 mmHg 96%
    02:00 +9°C° 0.1 mm 1 mps 619 mmHg 95%
    03:00 +9°C° 0 mm 1 mps 619 mmHg 95%
    04:00 +9°C° 0 mm 1 mps 619 mmHg 95%
    05:00 +9°C° 0 mm 1 mps 619 mmHg 95%
    06:00 +10°C° 0 mm 1 mps 620 mmHg 93%
    07:00 +10°C° 0 mm 1 mps 620 mmHg 91%
    08:00 +11°C° 0 mm 1 mps 621 mmHg 89%
    09:00 +11°C° 0.1 mm 1 mps 621 mmHg 88%
    10:00 +11°C° 0.1 mm 1 mps 621 mmHg 87%
    11:00 +12°C° 0.1 mm 2 mps 621 mmHg 85%
    12:00 +12°C° 0 mm 2 mps 620 mmHg 85%
    13:00 +12°C° 0 mm 2 mps 619 mmHg 84%
    14:00 +12°C° 0 mm 2 mps 619 mmHg 84%
    15:00 +12°C° 0 mm 2 mps 619 mmHg 87%
    16:00 +11°C° 0 mm 1 mps 619 mmHg 89%
    17:00 +11°C° 0 mm 1 mps 618 mmHg 92%
    18:00 +11°C° 0 mm 1 mps 619 mmHg 92%
    19:00 +11°C° 0 mm 1 mps 619 mmHg 92%
    20:00 +9°C° 0 mm 0 mps 620 mmHg 92%
    21:00 +9°C° 0 mm 0 mps 619 mmHg 93%
    22:00 +8°C° 0 mm 0 mps 619 mmHg 94%
    23:00 +8°C° 0 mm 0 mps 619 mmHg 95%
    Show more